Location: La Trinit�
(48.1620°N, 3.4512°W)
Time: 18:39:06
(UTC+00:00)

Terra - Pass Details

Date: 08 May 2021
Orbit: 701 x 703 km, 98.2° (Epoch: 16 June)

Event Time Altitude Azimuth Distance (km) Brightness Sun altitude
Exits shadow 22:40:59 31° 217° (SW) 1,226 2.8 -21.5°
Maximum altitude 22:42:36 42° 262° (W) 1,010 2.7 -21.6°
Drops below altitude 10° 22:47:08 10° 333° (NNW) 2,182 5.5 -21.9°
Sets 22:49:31 0° 341° (NNW) 3,105 6.7 -22.0°
